Weather History for Pasco, WA

Change the Weather History Date:

Saturday, June 8, 2013

  Actual Average Record
Temperature  
Mean Temperature 70 °F 66 °F  
Max Temperature 90 °F 81 °F 95 °F (1948)
Min Temperature 49 °F 52 °F 44 °F (1960)
Degree Days  
Heating Degree Days 0 2  
Month to date heating degree days 5 16  
Since 1 June heating degree days 5 16  
Since 1 July heating degree days 4712 5006  
Cooling Degree Days 5 3  
Month to date cooling degree days 37 19  
Year to date cooling degree days 83 52  
Since 1 June cooling degree days 37 19  
Growing Degree Days 20 (Base 50)    
Moisture  
Dew Point 41 °F    
Average Humidity 48    
Maximum Humidity 83    
Minimum Humidity 13    
Precipitation  
Precipitation 0.00 in 0.03 in 0.47 in (2004)
Month to date precipitation T 0.24  
Year to date precipitation 1.88 4.49  
Snow  
Snow 0.00 in - - ()
Snow Depth 0.00 in    
Sea Level Pressure  
Sea Level Pressure 29.96 in    
Wind  
Wind Speed 4 mph (WNW)    
Max Wind Speed 21 mph    
Max Gust Speed 24 mph    
Visibility 10 miles    
Events      
T = Trace of Precipitation, MM = Missing Value Source: NWS Daily Summary

Daily Weather History Graph

Daily Weather History Graph

Search for Another Location

Airport:

Trip Planner

Search our weather history database for the weather conditions in past years. The results will help you decide how hot, cold, wet, or windy it might be!

Date:

Astronomy

Jun. 08, 2013 Rise Set
Actual Time 5:05 AM PDT 8:46 PM PDT
Civil Twilight 4:26 AM PDT 9:25 PM PDT
Nautical Twilight 3:35 AM PDT 10:16 PM PDT
Astronomical Twilight 2:24 AM PDT 11:28 PM PDT
Moon 5:20 AM PDT (6/8) 8:49 PM PDT (6/8)
Length of Visible Light 16h 58m
Length of Day
15h 41m
New Moon, 0% of the Moon is Illuminated
Jun 8
New Moon
Jun 16
First Quarter
Jun 23
Full
Jun 29
Last Quarter
Jul 8
New

Hourly Weather History & Observations

Time (PDT) Temp. Dew Point Humidity Pressure Visibility Wind Dir Wind Speed Gust Speed Precip Events Conditions
12:53 AM 61.0 °F 42.1 °F 50% 30.00 in 10.0 mi North 4.6 mph - N/A   Clear
1:53 AM 61.0 °F 45.0 °F 56% 30.00 in 10.0 mi ESE 4.6 mph - N/A   Clear
2:53 AM 61.0 °F 46.9 °F 60% 30.01 in 10.0 mi SSE 8.1 mph - N/A   Clear
3:53 AM 54.0 °F 46.0 °F 75% 30.01 in 10.0 mi Calm Calm - N/A   Clear
4:53 AM 50.0 °F 44.1 °F 80% 30.02 in 10.0 mi Calm Calm - N/A   Clear
5:53 AM 51.1 °F 46.0 °F 83% 30.03 in 10.0 mi NNW 3.5 mph - N/A   Clear
6:53 AM 57.9 °F 48.9 °F 72% 30.05 in 10.0 mi Calm Calm - N/A   Clear
7:53 AM 64.9 °F 46.9 °F 52% 30.05 in 10.0 mi Calm Calm - N/A   Clear
8:53 AM 68.0 °F 43.0 °F 40% 30.05 in 10.0 mi Calm Calm - N/A   Clear
9:53 AM 72.0 °F 39.9 °F 31% 30.03 in 10.0 mi South 4.6 mph - N/A   Clear
10:53 AM 75.9 °F 37.9 °F 25% 30.02 in 10.0 mi Variable 3.5 mph - N/A   Clear
11:53 AM 79.0 °F 35.1 °F 20% 30.00 in 10.0 mi NNE 5.8 mph - N/A   Clear
12:53 PM 81.0 °F 37.9 °F 21% 29.98 in 10.0 mi Calm Calm - N/A   Clear
1:53 PM 82.9 °F 41.0 °F 23% 29.96 in 10.0 mi Variable 5.8 mph - N/A   Clear
2:53 PM 84.9 °F 35.1 °F 17% 29.94 in 10.0 mi SE 6.9 mph - N/A   Clear
3:53 PM 87.1 °F 30.0 °F 13% 29.92 in 10.0 mi South 8.1 mph - N/A   Clear
4:53 PM 89.1 °F 32.0 °F 13% 29.90 in 10.0 mi Variable 4.6 mph - N/A   Clear
5:53 PM 88.0 °F 33.1 °F 14% 29.88 in 10.0 mi Calm Calm - N/A   Clear
6:53 PM 89.1 °F 35.1 °F 15% 29.86 in 10.0 mi SW 6.9 mph - N/A   Clear
7:53 PM 87.1 °F 34.0 °F 15% 29.86 in 10.0 mi SW 5.8 mph - N/A   Clear
8:53 PM 77.0 °F 46.0 °F 33% 29.87 in 10.0 mi NNW 15.0 mph - N/A   Clear
9:53 PM 73.0 °F 46.0 °F 38% 29.89 in 10.0 mi NW 15.0 mph - N/A   Clear
10:53 PM 69.1 °F 46.9 °F 45% 29.90 in 10.0 mi NW 12.7 mph - N/A   Clear
11:53 PM 66.9 °F 46.0 °F 47% 29.92 in 10.0 mi NNW 4.6 mph - N/A   Clear